GLOBALSTAR M001 1 25162U 98008A 26095.49653267 -.00000050 00000+0 35453-3 0 9993 2 25162 52.0026 202.4176 0002050 146.8361 295.9254 12.38230690279920 GLOBALSTAR M004 1 25163U 98008B 26095.38671015 -.00000078 00000+0 14422-3 0 9996 2 25163 51.9997 242.7053 0003083 204.5887 179.1715 12.63418046298623 GLOBALSTAR M002 1 25164U 98008C 26095.50138766 -.00000056 00000+0 40654-3 0 9994 2 25164 52.0005 227.2695 0000626 333.5277 26.5511 11.61515723218035 GLOBALSTAR M003 1 25165U 98008D 26095.04791855 -.00000201 00000+0 -11915-2 0 9998 2 25165 51.9839 80.1151 0008056 156.7104 244.8843 12.12019078268612 GLOBALSTAR M014 1 25306U 98023A 26095.39516148 -.00000044 00000+0 63626-3 0 9991 2 25306 51.9817 144.6151 0001263 174.1181 198.9700 11.65485919225244 GLOBALSTAR M006 1 25307U 98023B 26095.53583856 -.00000087 00000+0 -23790-3 0 9994 2 25307 51.9934 207.6608 0002774 270.5263 171.4127 11.58178856250701 GLOBALSTAR M015 1 25308U 98023C 26095.32747892 -.00000065 00000+0 18813-3 0 9999 2 25308 51.9845 320.0452 0012104 234.7268 297.2304 11.48860880227651 GLOBALSTAR M008 1 25309U 98023D 26095.33042240 -.00000087 00000+0 71647-4 0 9995 2 25309 51.9968 71.0415 0002948 69.6140 78.6216 12.36082347273970 GLOBALSTAR M023 1 25621U 99004A 26095.40280612 -.00000026 00000+0 43307-3 0 9991 2 25621 52.0096 243.6242 0010290 55.8560 331.3236 12.62521756252641 GLOBALSTAR M040 1 25622U 99004B 26095.41165925 -.00000060 00000+0 24499-3 0 9991 2 25622 51.9909 248.1816 0000306 19.0422 6.9917 12.62032219252154 GLOBALSTAR M036 1 25623U 99004C 26095.42839207 .00000041 00000+0 17994-2 0 9993 2 25623 51.9960 190.0169 0010211 249.5633 190.4344 11.86623928213673 GLOBALSTAR M038 1 25624U 99004D 26095.30725020 -.00000064 00000+0 25291-3 0 9994 2 25624 51.9987 310.2884 0001136 327.7419 203.9265 12.32543199238391 GLOBALSTAR M022 1 25649U 99012A 26095.50076667 -.00000052 00000+0 41327-3 0 9993 2 25649 52.0033 216.2495 0002600 43.1929 35.8071 12.02511871211541 GLOBALSTAR M041 1 25650U 99012B 26095.39407695 -.00000079 00000+0 80725-4 0 9996 2 25650 52.0001 106.8990 0001296 177.9294 182.1548 11.96682733213267 GLOBALSTAR M046 1 25651U 99012C 26095.48907560 -.00000061 00000+0 30412-3 0 9991 2 25651 52.0039 155.7473 0002217 119.3405 253.2641 12.09422590219039 GLOBALSTAR M037 1 25652U 99012D 26095.50489343 -.00000063 00000+0 22762-3 0 9990 2 25652 52.0034 13.8212 0002454 102.9899 67.5126 12.62463972248199 GLOBALSTAR M045 1 25676U 99019A 26095.52190481 -.00000143 00000+0 -43698-3 0 9998 2 25676 51.9965 192.0420 0000574 138.2640 236.5535 12.27073398229285 GLOBALSTAR M019 1 25677U 99019B 26095.44223852 -.00000013 00000+0 80357-3 0 9997 2 25677 51.9909 343.2055 0001281 152.8799 18.1609 12.13882876220631 GLOBALSTAR M044 1 25678U 99019C 26095.36419830 -.00000032 00000+0 72337-3 0 9992 2 25678 51.9996 331.3333 0005511 240.4411 290.7779 11.90264823206113 GLOBALSTAR M042 1 25679U 99019D 26095.31984490 -.00000052 00000+0 38172-3 0 9998 2 25679 52.0023 306.2464 0002888 165.5414 5.1963 12.22095603220974 GLOBALSTAR M025 1 25770U 99031A 26095.53912794 -.00000070 00000+0 -69256-4 0 9995 2 25770 51.9805 202.0132 0001929 247.7040 125.1045 11.22560699514544 GLOBALSTAR M049 1 25771U 99031B 26095.46322737 -.00000106 00000+0 -14295-2 0 9991 2 25771 51.9862 251.6388 0003333 142.2130 217.8901 11.12123847149948 GLOBALSTAR M047 1 25772U 99031C 26095.27034010 -.00000056 00000+0 39256-3 0 9993 2 25772 51.9820 221.1396 0016408 47.3977 312.8210 11.31933111504189 GLOBALSTAR M052 1 25773U 99031D 26095.49490693 -.00000045 00000+0 71121-3 0 9996 2 25773 51.9911 356.1323 0002107 308.0139 222.7398 11.15063819511116 GLOBALSTAR M035 1 25851U 99037A 26095.45427987 -.00000041 00000+0 84739-3 0 9996 2 25851 51.9924 123.1758 0013580 97.0245 51.3178 11.04541458128553 GLOBALSTAR M032 1 25852U 99037B 26095.50802998 -.00000080 00000+0 -41431-3 0 9998 2 25852 51.9957 288.0917 0012008 300.2534 59.7077 11.19069284167519 GLOBALSTAR M051 1 25853U 99037C 26095.25976390 -.00000073 00000+0 -35343-4 0 9997 2 25853 51.9804 56.2979 0000275 105.7221 254.3620 11.42201256165763 GLOBALSTAR M030 1 25854U 99037D 26095.48369568 .00000011 00000+0 18261-2 0 9994 2 25854 51.9868 203.2766 0003845 192.0468 168.0258 11.55108050183827 GLOBALSTAR M048 1 25872U 99041A 26095.11107542 -.00000053 00000+0 46855-3 0 9999 2 25872 51.9413 2.9778 0013196 333.0438 167.0788 11.33862956158090 GLOBALSTAR M026 1 25873U 99041B 26095.38312451 -.00000030 00000+0 12739-2 0 9994 2 25873 51.9997 238.2129 0001817 53.9380 331.3434 11.06842970180849 GLOBALSTAR M043 1 25874U 99041C 26095.39611232 -.00000034 00000+0 10222-2 0 9994 2 25874 51.9370 121.5849 0013432 91.0960 283.0500 11.25699601155785 GLOBALSTAR M028 1 25875U 99041D 26095.19410606 -.00000114 00000+0 -87359-4 0 9992 2 25875 51.9645 42.3370 0063565 346.0756 13.8352 12.50598327226716 GLOBALSTAR M024 1 25883U 99043A 26095.27262409 -.00000137 00000+0 -25756-2 0 9994 2 25883 52.0009 81.5678 0001443 217.4699 155.8221 11.10171715147303 GLOBALSTAR M027 1 25884U 99043B 26095.48903457 -.00000076 00000+0 -46763-3 0 9997 2 25884 52.0186 167.3475 0021692 104.3883 255.9320 11.04373429173530 GLOBALSTAR M054 1 25885U 99043C 26095.38498310 -.00000044 00000+0 69515-3 0 9998 2 25885 52.0129 245.8390 0004121 328.2079 51.8877 11.39225992152354 GLOBALSTAR M053 1 25886U 99043D 26095.50609123 -.00000050 00000+0 55359-3 0 9997 2 25886 51.9972 208.8627 0003681 206.7949 235.6798 11.27671194152425 GLOBALSTAR M058 1 25907U 99049A 26095.24776574 -.00000049 00000+0 48347-3 0 9990 2 25907 51.9958 49.2832 0002316 109.6923 250.4162 11.93209883576408 GLOBALSTAR M050 1 25908U 99049B 26095.53787868 -.00000131 00000+0 -48936-3 0 9998 2 25908 52.0015 34.3428 0008601 255.3572 276.4571 12.07466453183504 GLOBALSTAR M033 1 25909U 99049C 26095.43805895 -.00000022 00000+0 66987-3 0 9993 2 25909 51.9900 246.2671 0015086 143.4156 216.7724 12.20305543571426 GLOBALSTAR M055 1 25910U 99049D 26095.53029626 -.00000082 00000+0 10087-3 0 9992 2 25910 52.0008 242.5170 0006899 26.2176 333.9024 12.29442534204243 GLOBALSTAR M057 1 25943U 99058A 26095.42635503 -.00000051 00000+0 38334-3 0 9994 2 25943 51.9976 238.8194 0001867 243.6302 116.4356 12.24837431202745 GLOBALSTAR M059 1 25944U 99058B 26095.36690346 -.00000019 00000+0 82806-3 0 9991 2 25944 51.9997 136.7196 0000657 182.8510 190.4478 11.99996614609128 GLOBALSTAR M056 1 25945U 99058C 26095.47842832 -.00000088 00000+0 -51396-5 0 9992 2 25945 51.9943 130.8879 0001069 51.6007 96.0443 12.04788694197854 GLOBALSTAR M031 1 25946U 99058D 26095.47799715 -.00000089 00000+0 11003-4 0 9994 2 25946 52.0002 5.7059 0002002 60.3958 110.3985 12.16051677200104 GLOBALSTAR M039 1 25961U 99062A 26095.17946559 -.00000085 00000+0 10296-3 0 9991 2 25961 51.9833 99.3464 0002479 276.2262 83.8322 12.62344614217096 GLOBALSTAR M034 1 25962U 99062B 26095.43831569 -.00000060 00000+0 33629-3 0 9993 2 25962 51.9900 331.6975 0013470 232.0058 299.3973 11.79456461172870 GLOBALSTAR M029 1 25963U 99062C 26095.51606520 -.00000074 00000+0 15612-3 0 9997 2 25963 51.9836 24.1002 0002523 342.2047 188.7384 11.99909512204216 GLOBALSTAR M061 1 25964U 99062D 26095.47549556 -.00000080 00000+0 44517-5 0 9993 2 25964 51.9778 159.5160 0006378 155.1568 218.4623 11.76777313155591 GLOBALSTAR M063 1 26081U 00008A 26095.42282201 -.00000091 00000+0 -12609-3 0 9990 2 26081 51.9959 61.9144 0004529 150.2109 29.1704 11.86182621192258 GLOBALSTAR M062 1 26082U 00008B 26095.33403921 -.00000077 00000+0 15297-3 0 9994 2 26082 51.9864 316.6535 0007700 22.9681 151.6152 12.43483909532963 GLOBALSTAR M060 1 26083U 00008C 26095.39704960 -.00000026 00000+0 64304-3 0 9995 2 26083 52.0036 317.8201 0003335 14.9363 157.2882 12.17679559187965 GLOBALSTAR M064 1 26084U 00008D 26095.47241876 -.00000067 00000+0 23606-3 0 9992 2 26084 52.0015 157.1723 0001468 244.1126 115.9556 11.88543466201854 GLOBALSTAR M065 1 31571U 07020A 26095.33524444 -.00000033 00000+0 39286-3 0 9994 2 31571 51.9903 57.0436 0009404 235.1542 279.1721 12.62024474870297 GLOBALSTAR M069 1 31573U 07020C 26095.50693675 -.00000093 00000+0 -59264-7 0 9997 2 31573 52.0016 97.8374 0001788 0.9249 174.0552 12.23470084869908 GLOBALSTAR M072 1 31574U 07020D 26095.48501786 -.00000065 00000+0 25935-3 0 9998 2 31574 51.9937 293.8016 0001592 139.9715 234.0234 11.91657044866317 GLOBALSTAR M071 1 31576U 07020F 26095.36609844 -.00000118 00000+0 -26164-3 0 9996 2 31576 52.0042 132.0918 0000619 337.0228 36.4486 12.18268015530555 GLOBALSTAR M067 1 32263U 07048A 26095.44319405 -.00000063 00000+0 25452-3 0 9997 2 32263 51.9721 260.7535 0000769 197.1629 180.6798 12.40686643845767 GLOBALSTAR M070 1 32264U 07048B 26095.09574057 -.00000058 00000+0 25301-3 0 9992 2 32264 51.9764 319.2203 0001000 85.2767 80.1013 12.62332711850539 GLOBALSTAR M066 1 32265U 07048C 26095.52650014 -.00000105 00000+0 -86341-4 0 9995 2 32265 51.9580 266.5018 0004050 243.2908 155.6060 12.30387951851289 GLOBALSTAR M068 1 32266U 07048D 26095.35678139 -.00000057 00000+0 26115-3 0 9992 2 32266 51.9867 131.6092 0001121 71.9855 302.1293 12.62844103854478 GLOBALSTAR M079 1 37188U 10054A 26095.39115623 -.00000075 00000+0 15959-3 0 9993 2 37188 52.0058 330.2734 0000690 106.8784 68.5646 12.62264759713358 GLOBALSTAR M074 1 37189U 10054B 26095.33492421 -.00000071 00000+0 18148-3 0 9991 2 37189 52.0038 329.7220 0000642 76.8945 82.4563 12.62267110713955 GLOBALSTAR M076 1 37190U 10054C 26095.36378826 -.00000079 00000+0 13620-3 0 9996 2 37190 52.0052 329.8303 0000440 90.3109 80.7805 12.62271261713676 GLOBALSTAR M077 1 37191U 10054D 26095.46539693 -.00000084 00000+0 -10641-3 0 9996 2 37191 52.0018 3.8919 0000636 144.5260 26.2674 11.68156268712647 GLOBALSTAR M075 1 37192U 10054E 26095.53541060 -.00000080 00000+0 13503-3 0 9991 2 37192 51.9975 11.4004 0000649 76.2384 94.8362 12.62265479712768 GLOBALSTAR M073 1 37193U 10054F 26095.50310707 -.00000089 00000+0 79721-4 0 9995 2 37193 52.0059 285.5452 0000669 113.6280 269.5824 12.62266186714759 GLOBALSTAR M083 1 37739U 11033A 26095.52744023 -.00000088 00000+0 85373-4 0 9992 2 37739 51.9846 233.7961 0000699 133.8335 301.8329 12.62262203683778 GLOBALSTAR M088 1 37740U 11033B 26095.40844794 -.00000073 00000+0 17124-3 0 9999 2 37740 52.0200 140.4124 0000303 112.6237 260.1254 12.62262896679305 GLOBALSTAR M091 1 37741U 11033C 26095.45474504 -.00000106 00000+0 -10473-4 0 9992 2 37741 51.9982 103.3415 0000397 104.5336 59.8898 12.62270845680093 GLOBALSTAR M085 1 37742U 11033D 26095.27938319 -.00000110 00000+0 -34576-4 0 9997 2 37742 52.0134 55.1015 0000551 95.0752 52.2585 12.62269987680582 GLOBALSTAR M081 1 37743U 11033E 26095.38958514 -.00000115 00000+0 -63940-4 0 9991 2 37743 51.9964 57.2859 0000311 79.6181 88.1582 12.62263322680749 GLOBALSTAR M089 1 37744U 11033F 26095.50944034 -.00000080 00000+0 13287-3 0 9996 2 37744 51.9959 11.0964 0000533 45.8483 127.0770 12.62265469681607 GLOBALSTAR M084 1 38040U 11080A 26095.12682918 -.00000095 00000+0 50779-4 0 9990 2 38040 52.0000 239.7042 0000444 100.6558 72.6644 12.62266126659539 GLOBALSTAR M080 1 38041U 11080B 26095.38223137 -.00000090 00000+0 75708-4 0 9997 2 38041 52.0051 240.6200 0001151 107.7148 276.3871 12.62268056659698 GLOBALSTAR M082 1 38042U 11080C 26095.48930453 -.00000075 00000+0 15876-3 0 9997 2 38042 52.0069 195.7870 0000891 121.6582 319.2680 12.62268767660414 GLOBALSTAR M092 1 38043U 11080D 26095.24530707 -.00000074 00000+0 16835-3 0 9995 2 38043 52.0083 286.9243 0000753 93.3595 77.8622 12.62265789658831 GLOBALSTAR M090 1 38044U 11080E 26095.43620267 -.00000079 00000+0 13737-3 0 9991 2 38044 52.0122 189.8810 0000588 132.0637 306.6699 12.62267630660524 GLOBALSTAR M086 1 38045U 11080F 26095.52393118 -.00000063 00000+0 22826-3 0 9996 2 38045 51.9892 189.6630 0000816 221.7619 151.8969 12.62284913660483 GLOBALSTAR M097 1 39072U 13005A 26095.39199737 -.00000114 00000+0 -55054-4 0 9990 2 39072 52.0030 104.9259 0000342 122.6818 237.4082 12.62260188607713 GLOBALSTAR M093 1 39073U 13005B 26095.44499712 -.00000109 00000+0 -29676-4 0 9998 2 39073 52.0093 98.0857 0000387 143.9467 216.1426 12.62264409607676 GLOBALSTAR M094 1 39074U 13005C 26095.44511936 -.00000094 00000+0 56410-4 0 9990 2 39074 51.9991 12.2769 0000568 97.9553 262.1378 12.62267229609286 GLOBALSTAR M096 1 39075U 13005D 26095.29999613 -.00000115 00000+0 -63142-4 0 9991 2 39075 52.0077 61.4597 0000439 97.6682 262.4235 12.62263941608186 GLOBALSTAR M078 1 39076U 13005E 26095.43143370 -.00000029 00000+0 41582-3 0 9995 2 39076 51.9857 145.1712 0001244 108.6082 251.4920 12.62276961606826 GLOBALSTAR M095 1 39077U 13005F 26095.37896796 -.00000076 00000+0 15258-3 0 9999 2 39077 52.0065 142.8329 0000771 131.3052 228.7881 12.62267182606673 GLOBALSTAR M087 1 52888U 22064A 26095.55081034 -.00000099 00000+0 26739-4 0 9992 2 52888 51.9996 283.5930 0000913 114.4971 245.5991 12.62267986181961